Weather in Kansay

Tajikistan     40°29′32″N   69°42′09″E
В апреле 2022 года жителям России запретили посещать сайт meteo.paraplan.net по решению Генеральной прокуратуры. Аудитория сайта уменьшилась в 10 раз. Владельцы сайта не видят смысла в поддержке погодного сервера в таких условиях. Сайт будет закрыт в октябре.
temp.,
°C
wind,
m/s
gust,
m/s
humid.,
%
clouds,
%
prec.,
mm/h
press.,
hPa
HPBL,
m
26 september, mon
mon2623:00+18n22210 0.0 101412
02:00+18n22210 0.0 101512
05:00+16nne22220 0.0 101611
08:00+22e11160 0.0 1017104
11:00+25sw33130 0.0 10161555
14:00+28wnw65100 0.0 10141997
17:00+26wnw78110 0.0 10151823
20:00+20nnw56160 0.0 101770
27 september, tue
tue2723:00+18nw33220 0.0 101824
02:00+16nw45340 0.0 101863
05:00+15nw45440 0.0 101971
08:00+17wnw45400 0.0 1018288
11:00+22wnw55280 0.0 1017920
14:00+23wnw66230 0.0 10151004
17:00+22nw55210 0.0 1015872
20:00+17nnw45240 0.0 101664
28 september, wed
wed2823:00+15nnw44210 0.0 101642
02:00+15nw44230 0.0 101547
05:00+14nnw43250 0.0 101535
08:00+17nw23220 0.0 1015213
11:00+21wsw33185 0.0 1014842
14:00+22wnw661717 0.0 1012840
17:00+21wnw561819 0.0 1013756
20:00+16nnw4422100 0.0 101551
29 september, thu
thu2923:00+15nnw44200 0.0 101428
02:00+14n33210 0.0 101315
05:00+12ene11239 0.0 101311
08:00+17ene11185 0.0 1013131
11:00+22sw321551 0.0 1012837
14:00+24wnw561499 0.0 10101044
17:00+22wnw561674 0.0 1011741
20:00+17nnw4419100 0.0 101339
30 september, fri
fri3023:00+17nnw3316100 0.0 101123
02:00+16nnw331677 0.0 101118
05:00+16nw4417100 0.0 101241
08:00+18nw451889 0.0 1013262
11:00+21wnw5615100 0.0 1013773
14:00+22wnw7915100 0.0 10121095
17:00+20wnw6919100 0.0 10131150
20:00+17wnw5722100 0.0 1015189